Date String (YYYY-MM-DD hh:mm:ss) UTC,Instrument flags,Ambient pressure (hPa),Sample flow (lpm),Bypass flow (lpm),Sample temperature (°C),Ambient temperature (°C),ASC tube jacket temperature (°C),LED temperature (°C),Box temperature (°C),Sample RH (%),Span deviation,Mass concentration (μg/m³),Mass concentration (μg/m³),Mass concentration (μg/m³)
DateTimeUTC,F1_M11,P_M11,Q1_M11,Q2_M11,T1_M11,T2_M11,T3_M11,T4_M11,T5_M11,U1_M11,ZSPAN_M11,X0_M11,X2_M11,X1_M11
2023-02-11 11:00:00,,0827.1,4.96,0.00,22.4,20.8,00.0,31.2,24.1,09.0,0000.0,0015.32,0005.25,0004.22
2023-02-11 11:01:00,,0826.9,4.98,0.00,22.4,20.6,00.0,31.2,24.0,09.0,0000.0,0015.03,0005.22,0004.21
2023-02-11 11:02:00,,0826.9,4.99,0.00,22.3,20.5,00.0,31.2,24.0,09.0,0000.0,0014.63,0005.17,0004.21
2023-02-11 11:03:00,,0826.9,4.99,0.00,22.3,20.4,00.0,31.2,23.9,09.0,0000.0,0014.21,0005.15,0004.23
2023-02-11 11:04:00,,0826.9,5.02,0.00,22.2,20.3,00.0,31.2,23.9,09.0,0000.0,0013.08,0005.15,0004.24
2023-02-11 11:05:00,,0826.9,5.02,0.00,22.2,20.2,00.0,31.2,23.9,09.1,0000.0,0012.80,0005.16,0004.25
2023-02-11 11:06:00,,0827.0,5.00,0.00,22.2,20.2,00.0,31.2,23.9,09.1,0000.0,0012.87,0005.16,0004.25
2023-02-11 11:07:00,,0826.9,5.01,0.00,22.2,21.0,00.0,31.1,24.0,09.0,0000.0,0012.43,0005.09,0004.23
2023-02-11 11:08:00,,0827.0,5.00,0.00,22.3,22.2,00.0,31.1,24.3,09.0,0000.0,0012.08,0005.08,0004.21
2023-02-11 11:09:00,,0826.9,4.98,0.00,22.5,23.0,00.0,31.1,24.5,09.0,0000.0,0011.79,0005.07,0004.20
2023-02-11 11:10:00,,0826.9,5.00,0.00,22.5,22.6,00.0,31.2,24.5,08.9,0000.0,0012.29,0005.11,0004.21
2023-02-11 11:11:00,,0826.9,5.09,0.00,22.5,22.1,00.0,31.2,24.3,08.9,0000.0,0012.78,0005.13,0004.22
2023-02-11 11:12:00,,0827.0,4.95,0.00,22.5,21.7,00.0,31.2,24.3,08.9,0000.0,0012.74,0005.12,0004.22
2023-02-11 11:13:00,,0826.9,5.05,0.00,22.5,21.4,00.0,31.3,24.2,08.9,0000.0,0012.69,0005.15,0004.23
2023-02-11 11:14:00,,0827.1,4.99,0.00,22.4,21.2,00.0,31.3,24.2,08.9,0000.0,0012.55,0005.23,0004.24
2023-02-11 11:15:00,,0827.1,4.99,0.00,22.4,21.0,00.0,31.3,24.2,08.9,0000.0,0012.79,0005.28,0004.26
2023-02-11 11:16:00,,0827.0,5.02,0.00,22.4,20.9,00.0,31.3,24.1,08.9,0000.0,0013.67,0005.32,0004.27
2023-02-11 11:17:00,,0826.9,4.99,0.00,22.4,20.7,00.0,31.3,24.1,08.9,0000.0,0015.04,0005.32,0004.27
2023-02-11 11:18:00,,0826.9,4.97,0.00,22.4,20.6,00.0,31.2,24.1,08.9,0000.0,0015.07,0005.35,0004.30
2023-02-11 11:19:00,,0826.9,5.02,0.00,22.3,20.5,00.0,31.2,24.1,08.9,0000.0,0015.02,0005.36,0004.32
2023-02-11 11:20:00,,0826.8,5.02,0.00,22.3,20.4,00.0,31.2,24.0,08.9,0000.0,0015.24,0005.38,0004.34
2023-02-11 11:21:00,,0826.9,5.00,0.00,22.3,20.4,00.0,31.2,24.0,08.9,0000.0,0015.15,0005.36,0004.34
2023-02-11 11:22:00,,0826.9,4.97,0.00,22.3,20.4,00.0,31.2,24.0,08.9,0000.0,0015.40,0005.35,0004.34
2023-02-11 11:23:00,,0826.9,4.99,0.00,22.2,20.4,00.0,31.2,24.0,08.9,0000.0,0015.90,0005.39,0004.37
2023-02-11 11:24:00,,0826.9,5.03,0.00,22.2,20.4,00.0,31.2,24.0,08.9,0000.0,0016.72,0005.37,0004.38
2023-02-11 11:25:00,,0826.9,5.00,0.00,22.2,20.4,00.0,31.1,24.0,08.9,0000.0,0016.24,0005.30,0004.38
2023-02-11 11:26:00,,0826.9,5.00,0.00,22.2,20.9,00.0,31.1,24.1,08.9,0000.0,0016.44,0005.27,0004.36
2023-02-11 11:27:00,,0827.0,4.99,0.00,22.3,22.1,00.0,31.1,24.3,08.9,0000.0,0015.55,0005.21,0004.34
2023-02-11 11:28:00,,0827.1,5.01,0.00,22.5,23.1,00.0,31.1,24.6,08.8,0000.0,0014.35,0005.18,0004.35
2023-02-11 11:29:00,,0827.3,5.05,0.00,22.6,22.9,00.0,31.2,24.6,08.8,0000.0,0014.96,0005.23,0004.40
2023-02-11 11:30:00,,0827.2,5.04,0.00,22.6,22.4,00.0,31.2,24.5,08.8,0000.0,0015.49,0005.28,0004.47
2023-02-11 11:31:00,,0827.0,4.98,0.00,22.6,21.9,00.0,31.2,24.4,08.8,0000.0,0016.08,0005.30,0004.51
2023-02-11 11:32:00,,0827.0,4.91,0.00,22.5,21.6,00.0,31.3,24.4,08.8,0000.0,0015.99,0005.31,0004.56
2023-02-11 11:33:00,,0826.9,4.98,0.00,22.5,21.4,00.0,31.3,24.3,08.8,0000.0,0015.19,0005.32,0004.61
2023-02-11 11:34:00,,0826.9,4.99,0.00,22.5,21.3,00.0,31.3,24.3,08.8,0000.0,0014.95,0005.35,0004.64
2023-02-11 11:35:00,,0826.9,5.02,0.00,22.5,21.1,00.0,31.3,24.3,08.8,0000.0,0014.30,0005.38,0004.67
2023-02-11 11:36:00,,0826.8,4.97,0.00,22.5,21.0,00.0,31.3,24.2,08.8,0000.0,0015.01,0005.42,0004.70
2023-02-11 11:37:00,,0827.3,5.00,0.00,22.5,20.8,00.0,31.3,24.2,08.8,0000.0,0014.82,0005.46,0004.75
2023-02-11 11:38:00,,0827.0,4.98,0.00,22.4,20.7,00.0,31.3,24.2,08.8,0000.0,0015.35,0005.50,0004.81
2023-02-11 11:39:00,,0827.0,4.99,0.00,22.4,20.7,00.0,31.3,24.2,08.9,0000.0,0015.50,0005.56,0004.85
2023-02-11 11:40:00,,0827.1,4.97,0.00,22.4,20.7,00.0,31.3,24.1,08.9,0000.0,0014.78,0005.58,0004.85
2023-02-11 11:41:00,,0827.0,5.01,0.00,22.4,20.6,00.0,31.3,24.1,08.9,0000.0,0014.48,0005.59,0004.84
2023-02-11 11:42:00,,0827.2,5.00,0.00,22.3,20.6,00.0,31.3,24.1,08.9,0000.0,0014.06,0005.62,0004.84
2023-02-11 11:43:00,,0826.9,4.97,0.00,22.3,20.4,00.0,31.2,24.0,08.9,0000.0,0013.91,0005.62,0004.83
2023-02-11 11:44:00,,0826.9,5.00,0.00,22.3,20.3,00.0,31.2,23.9,09.0,0000.0,0014.09,0005.70,0004.83
2023-02-11 11:45:00,,0826.9,5.02,0.00,22.2,20.6,00.0,31.2,24.0,09.0,0000.0,0014.32,0005.76,0004.84
2023-02-11 11:46:00,,0826.9,4.96,0.00,22.3,21.8,00.0,31.2,24.2,09.0,0000.0,0014.53,0005.88,0004.86
2023-02-11 11:47:00,,0827.0,5.00,0.00,22.5,22.9,00.0,31.2,24.5,08.9,0000.0,0014.77,0005.92,0004.89
2023-02-11 11:48:00,,0826.9,5.03,0.00,22.6,23.1,00.0,31.2,24.7,08.8,0000.0,0014.83,0005.96,0004.91
2023-02-11 11:49:00,,0827.0,5.02,0.00,22.6,22.6,00.0,31.3,24.6,08.8,0000.0,0014.65,0006.03,0004.93
2023-02-11 11:50:00,,0827.0,5.01,0.00,22.6,22.2,00.0,31.3,24.5,08.8,0000.0,0014.76,0006.07,0004.96
2023-02-11 11:51:00,,0826.9,4.91,0.00,22.6,21.8,00.0,31.3,24.5,08.8,0000.0,0015.62,0006.07,0004.99
2023-02-11 11:52:00,,0827.0,5.00,0.00,22.6,21.5,00.0,31.3,24.4,08.8,0000.0,0015.83,0006.10,0005.00
2023-02-11 11:53:00,,0826.8,5.01,0.00,22.6,21.3,00.0,31.3,24.3,08.8,0000.0,0015.96,0006.17,0005.02
2023-02-11 11:54:00,,0826.8,5.01,0.00,22.6,21.1,00.0,31.3,24.3,08.8,0000.0,0015.78,0006.19,0005.04
2023-02-11 11:55:00,,0826.8,4.98,0.00,22.5,20.9,00.0,31.3,24.2,08.8,0000.0,0016.03,0006.18,0005.08
2023-02-11 11:56:00,,0826.8,5.00,0.00,22.4,20.6,00.0,31.3,24.0,08.9,0000.0,0016.04,0006.16,0005.10
2023-02-11 11:57:00,,0826.8,5.01,0.00,22.4,20.4,00.0,31.3,24.0,09.0,0000.0,0016.01,0006.14,0005.10
2023-02-11 11:58:00,,0826.8,5.00,0.00,22.3,20.3,00.0,31.3,23.9,09.0,0000.0,0015.34,0006.07,0005.06
2023-02-11 11:59:00,,0826.8,4.99,0.00,22.3,20.3,00.0,31.3,23.9,09.0,0000.0,0015.04,0006.06,0005.03
